Temp
27 26 27 31 36 37 34 34 35 35 35 35 35 35 35 35 34 31 29 28 27 27 24 22 23 23 23 22 22 22 22 22 22 21 21 21 21 20 20 20 20 20 20 20 20 20 21 21 21
27 27 30 37 37 35 34 35 35 35 35 35 35 36 35 33 32 32 29 25 26 25 24 23 22 22 22 22 22 22 21 21 22 21 21 21 21 21 21 21 21 20 20 19 19 20 20 21 20
27 28 37 36 36 34 33 34 34 36 36 35 35 35 32 27 29 26 24 24 25 24 24 19 21 21 21 22 22 21 22 22 22 22 21 21 21 21 21 21 20 20 20 19 19 19 19 20 20
31 35 37 36 33 33 34 34 34 35 36 36 36 32 28 25 25 24 24 23 23 22 22 18 19 20 21 21 21 21 21 22 22 22 21 21 21 21 21 21 21 20 20 20 19 19 19 19 19
33 37 36 34 33 33 34 34 34 35 35 34 36 31 27 25 24 23 22 21 22 21 21 19 21 21 19 18 19 21 21 21 21 21 21 21 21 20 20 20 20 21 20 20 20 20 19 19 19
36 37 36 34 33 34 34 34 34 34 34 33 33 29 25 24 23 22 22 21 21 20 20 20 20 19 19 18 18 18 19 20 20 21 21 21 21 21 20 20 20 19 20 20 20 20 19 19 19
36 36 34 34 33 33 32 34 33 34 32 30 30 29 25 24 23 23 22 21 20 20 19 19 20 19 19 18 18 17 18 18 18 18 19 19 20 20 21 22 22 21 20 19 20 20 20 20 19
35 36 34 33 33 32 32 33 33 31 27 29 28 27 24 23 24 24 23 22 21 21 21 20 20 19 19 19 18 18 18 19 19 19 18 18 18 19 19 19 19 21 23 23 22 21 20 21 21
34 35 34 32 33 32 32 31 29 28 26 25 24 24 23 24 24 24 23 23 22 21 21 20 20 20 20 20 19 19 18 18 18 18 18 18 20 19 19 20 19 19 19 20 21 22 22 20 20
35 34 32 31 31 30 29 30 31 29 27 25 24 24 24 24 24 24 24 23 22 21 21 19 18 19 20 19 19 19 19 19 18 18 17 18 17 17 18 18 19 18 18 18 18 19 19 19 19
33 32 31 30 29 32 29 27 29 28 24 24 23 24 24 24 24 24 23 22 21 21 20 20 18 17 18 19 19 19 19 18 18 17 16 17 17 17 17 16 17 18 19 19 19 19 19 18 19
30 30 30 29 30 29 27 26 24 24 23 24 24 24 23 23 23 22 22 22 21 20 19 19 18 17 17 18 18 18 17 17 17 16 15 15 16 16 16 16 14 15 16 17 18 19 19 19 19
30 29 29 28 27 27 25 24 23 22 23 23 23 23 23 23 22 21 21 21 20 19 18 18 17 16 16 16 16 17 16 16 16 16 15 14 14 14 14 14 15 15 13 13 14 16 17 18 18
30 29 29 28 27 26 25 24 24 22 23 23 23 23 23 22 21 21 20 19 19 19 18 17 16 15 15 15 15 15 15 15 15 15 14 12 12 13 13 13 14 15 12 11 11 12 13 16 17
30 30 29 27 27 26 26 23 22 23 23 23 23 23 22 22 21 20 20 19 19 19 17 16 16 14 14 14 15 15 14 14 14 14 13 12 11 11 10 12 13 13 12 12 13 12 12 12 14
30 30 30 26 27 26 27 21 21 23 23 23 23 22 22 22 20 19 19 19 18 17 16 15 14 13 13 13 13 14 13 13 13 13 12 10 9 9 9 9 11 10 10 12 12 12 11 10 10
30 29 28 27 26 26 27 21 21 23 23 22 22 22 21 21 20 18 18 18 17 16 15 14 13 12 12 13 13 13 13 13 12 12 11 9 9 7 6 7 7 6 9 10 11 10 10 10 9
29 27 27 25 24 25 23 21 22 22 22 22 21 21 20 20 19 18 17 16 16 15 14 13 12 11 11 12 12 12 12 12 11 11 9 8 8 6 5 4 4 4 5 6 7 7 8 8 9
28 27 25 24 23 23 22 22 22 22 22 21 20 20 19 19 18 17 16 15 15 14 13 12 11 10 9 10 10 9 10 10 10 9 7 6 6 5 4 4 3 3 3 3 4 5 5 6 7
27 26 24 23 23 23 22 22 22 21 20 19 19 19 18 18 18 16 15 14 14 12 11 11 10 9 7 7 7 7 7 8 7 6 5 4 3 3 2 2 2 1 2 2 3 3 4 4 5
26 26 25 24 23 24 23 21 21 20 19 19 19 18 18 17 16 16 14 14 13 11 10 10 8 7 5 4 5 6 6 6 4 3 3 2 1 1 0 0 -0 0 1 0 1 1 2 2 3
26 24 25 24 24 24 24 26 22 21 19 18 18 17 17 16 15 14 13 13 11 10 8 8 6 5 4 4 3 3 3 3 2 2 1 1 0 -1 -1 -1 -1 -1 -0 -1 -1 -1 -1 -0 1
24 23 24 25 25 24 23 23 26 22 19 18 17 17 16 15 14 14 12 11 9 7 7 6 5 5 3 2 2 1 1 1 1 1 0 -0 -1 -1 -2 -2 -2 -2 -2 -1 -1 -1 -2 -2 -1
23 24 23 24 25 24 26 25 25 22 21 18 17 16 15 14 14 12 12 11 7 7 6 6 6 3 2 1 0 -0 0 0 0 -1 -1 -1 -1 -2 -2 -2 -2 -2 -2 -2 -2 -2 -2 -2 -2
24 25 26 25 24 26 23 23 21 18 17 16 15 15 14 14 13 12 11 10 7 6 6 4 4 2 1 0 0 -1 -0 -0 -0 -1 -2 -2 -2 -2 -2 -2 -2 -2 -2 -2 -2 -2 -2 -2 -3
23 24 25 24 25 26 22 24 21 17 16 15 15 15 14 13 12 11 10 9 9 7 3 2 2 2 1 1 1 0 -0 0 0 -0 -2 -3 -3 -3 -3 -2 -2 -2 -3 -3 -3 -3 -3 -3 -3
23 24 22 22 20 22 26 20 17 16 16 15 15 14 13 13 12 11 10 9 8 5 3 3 2 1 1 1 1 0 -0 0 -0 -1 -1 -3 -4 -4 -4 -3 -2 -3 -3 -3 -4 -4 -4 -4 -3
23 22 23 23 22 23 25 23 24 16 17 15 15 13 13 12 11 10 9 8 5 4 3 2 2 1 1 -0 -1 -1 -1 -1 -1 -1 -2 -4 -4 -4 -4 -4 -3 -3 -3 -4 -4 -4 -4 -4 -4
22 23 21 22 22 22 23 24 18 17 15 14 14 12 11 11 11 10 8 5 5 3 2 1 1 1 0 -1 -1 -2 -1 -1 -1 -2 -3 -3 -4 -4 -4 -4 -4 -4 -4 -4 -4 -4 -4 -4 -4
20 21 21 21 22 21 20 21 16 15 14 13 13 11 10 10 9 7 5 5 3 1 1 1 0 -0 -1 -1 -1 -2 -2 -2 -1 -2 -3 -4 -4 -4 -4 -5 -4 -4 -5 -5 -5 -4 -4 -4 -4
Height
775 776 776 773 773 770 794 793 773 776 774 768 768 769 774 772 784 806 795 793 792 793 795 797 801 804 807 809 811 812 812 812 813 813 814 814 814 815 815 816 816 816 816 815 815 815 815 815 814
776 776 774 756 776 795 803 782 786 778 773 769 769 767 771 787 785 786 794 800 798 798 800 803 804 806 808 809 811 813 814 814 814 814 814 814 814 814 814 814 815 815 816 816 816 815 815 814 814
775 774 759 770 781 802 806 788 785 773 768 769 771 768 783 812 801 807 808 805 803 803 805 804 805 807 809 810 811 812 813 813 813 813 813 813 814 814 814 815 814 814 814 815 815 816 815 814 814
773 767 760 781 802 799 796 789 784 778 769 767 767 791 804 820 816 816 812 809 807 807 808 807 808 810 810 811 812 812 812 812 813 813 813 813 813 812 812 812 812 812 813 813 813 813 814 815 814
770 759 780 793 802 796 790 787 783 782 778 777 769 797 814 823 822 820 817 814 811 811 811 811 811 812 813 813 813 813 813 813 812 812 812 812 812 812 811 811 810 810 809 809 810 811 811 812 813
765 761 784 799 803 794 790 787 784 784 782 786 784 803 823 828 826 824 822 817 815 814 813 814 813 812 813 813 813 813 813 813 813 813 812 810 809 808 808 807 807 808 809 808 807 807 808 808 809
769 771 791 793 802 798 800 786 793 789 794 799 796 809 829 830 830 829 825 821 819 817 816 816 817 816 815 814 813 812 813 812 813 812 812 811 809 808 804 801 800 800 801 804 804 802 803 804 804
769 772 794 797 802 809 800 793 793 800 814 805 806 820 835 836 834 830 826 825 824 823 823 822 821 820 819 818 815 814 813 811 810 810 809 808 807 806 805 804 803 798 790 788 792 795 797 797 798
771 782 796 803 802 807 799 804 806 813 820 823 828 834 838 837 835 832 830 831 830 829 829 829 827 826 824 822 820 817 815 813 811 810 808 805 804 803 802 801 799 798 796 791 790 786 782 788 790
775 787 804 802 802 810 811 809 805 814 824 833 837 840 841 840 839 836 835 835 835 836 835 835 834 831 829 827 824 822 819 817 815 813 810 807 803 799 797 795 793 792 789 788 787 785 785 781 784
786 802 801 808 807 800 814 820 814 819 840 844 846 846 846 844 843 841 840 840 841 842 841 840 839 837 834 830 828 825 822 819 817 814 811 809 806 802 798 793 790 787 784 784 783 781 776 778 777
807 806 809 811 808 811 825 831 838 840 851 850 850 851 851 850 849 847 847 846 846 847 847 846 843 840 838 835 831 828 825 822 819 816 811 808 803 801 799 796 791 786 781 777 776 775 773 770 769
808 815 815 818 820 825 830 838 842 854 855 856 856 856 855 854 854 855 855 854 853 852 852 850 848 845 841 839 836 832 828 824 821 818 816 811 806 802 797 793 790 787 781 774 770 767 766 765 764
808 813 818 823 827 831 835 843 844 860 859 858 858 858 859 859 860 861 860 859 857 856 856 854 851 849 846 843 840 836 832 828 824 820 817 813 809 804 799 793 788 784 780 776 770 765 760 758 757
808 814 815 829 827 832 829 854 862 860 860 860 860 861 862 863 864 865 864 862 861 859 859 857 854 852 848 845 842 839 836 832 826 822 819 815 810 805 801 795 790 785 780 773 769 765 759 753 748
811 811 818 830 827 829 825 870 867 861 860 862 862 863 864 867 867 868 867 865 864 863 862 860 857 853 850 846 842 839 835 831 828 824 819 815 811 807 801 796 790 786 780 774 769 764 759 754 748
813 824 828 828 830 830 828 865 866 862 863 865 865 867 869 871 871 871 870 868 866 866 865 862 859 856 852 847 844 840 837 834 830 826 821 817 812 808 803 797 790 785 780 774 768 763 759 752 746
824 832 834 841 846 837 848 863 865 863 866 868 868 872 873 874 875 875 873 872 870 869 866 863 860 858 853 848 845 842 839 834 831 827 823 818 813 808 802 798 791 785 779 774 769 763 758 753 745
823 828 841 849 852 855 859 863 866 866 867 870 873 875 876 877 879 879 877 875 873 871 868 866 862 859 855 851 848 844 840 834 831 828 824 820 815 809 803 797 791 785 779 773 768 761 756 750 746
829 837 848 853 851 853 860 866 866 870 875 876 876 878 879 880 879 879 878 877 875 875 872 868 865 861 857 855 852 848 843 838 835 831 826 821 816 810 804 798 792 785 778 772 767 762 754 749 747
837 840 846 851 855 851 857 867 869 875 875 878 879 880 881 881 882 881 880 879 876 875 873 869 867 864 862 858 853 848 843 838 834 830 826 820 816 810 805 799 793 785 779 773 767 762 757 747 743
840 843 843 849 849 850 848 841 856 866 875 877 879 881 883 885 885 884 883 879 878 878 877 874 871 868 864 860 856 851 849 843 838 834 829 823 817 812 806 800 794 786 779 774 768 762 757 750 742
846 846 843 842 840 848 852 855 827 854 870 877 881 883 886 887 887 886 885 883 885 883 880 877 874 870 866 862 859 855 851 847 840 836 830 825 819 814 808 801 795 788 781 775 768 762 756 750 745
845 846 848 845 843 853 828 843 835 849 859 878 882 884 888 889 889 889 886 884 888 885 884 879 875 873 868 865 860 858 853 848 842 837 831 825 820 814 809 803 796 789 782 775 768 762 756 749 744
842 843 840 846 849 837 843 848 853 870 878 884 886 888 890 891 891 889 888 885 888 886 885 882 878 875 871 867 861 858 855 850 845 838 832 826 821 816 810 803 797 790 783 776 769 763 757 750 744
848 845 845 855 841 833 846 836 850 874 883 887 889 890 890 890 892 892 890 889 886 885 886 884 880 876 872 869 864 859 856 851 845 840 835 830 825 819 813 806 799 792 785 778 771 765 759 752 744
849 849 851 854 861 856 825 854 870 878 881 884 886 887 890 890 891 892 890 889 885 887 886 884 882 878 874 868 867 861 858 853 848 841 837 832 827 821 815 809 801 795 788 780 773 766 760 753 745
850 851 854 848 860 854 829 837 827 874 874 882 883 886 889 891 891 891 890 889 891 891 889 886 884 880 876 871 869 864 861 856 850 844 839 835 829 823 818 811 804 797 791 783 776 770 763 755 748
852 851 857 854 854 851 845 830 860 867 878 882 883 888 892 893 892 891 893 895 893 893 891 888 885 880 877 875 872 866 863 858 853 847 841 837 832 826 820 814 808 801 794 787 780 773 766 758 751
858 856 854 857 852 856 858 849 871 875 879 884 887 893 896 894 896 898 899 898 897 895 892 889 886 882 879 877 874 869 865 860 854 849 844 840 834 829 823 817 811 804 797 790 783 776 769 762 754
Wind_Speed
8 3 5 6 3 8 13 10 2 13 4 8 5 7 12 19 15 8 14 8 13 8 11 13 9 6 5 5 5 5 4 4 7 9 9 8 6 5 5 5 6 6 5 6 7 7 8 8 8
3 4 6 3 3 9 11 12 14 13 8 3 5 4 13 19 22 12 11 16 12 8 9 8 10 6 5 4 4 3 4 4 4 6 8 7 7 6 6 6 6 6 6 7 8 8 9 10 10
4 5 2 2 5 9 11 12 13 11 8 3 7 13 12 15 19 9 16 13 12 11 9 5 8 6 4 3 3 3 4 6 6 7 8 8 7 7 6 6 6 7 7 8 8 9 10 10 10
4 6 2 7 13 11 12 11 10 12 10 9 7 17 12 24 9 15 15 14 14 14 10 8 6 4 3 2 3 3 4 5 7 8 9 9 9 9 9 8 8 8 8 8 9 9 11 12 12
3 4 6 9 11 11 11 11 9 12 11 12 15 20 12 22 18 20 21 20 19 16 13 10 1 2 1 3 3 4 6 6 7 8 9 10 10 10 10 10 10 11 10 11 11 11 12 12 13
4 3 6 8 10 9 12 8 7 11 14 14 13 13 12 16 20 21 23 26 24 20 15 12 12 10 7 6 6 6 6 8 10 10 11 12 13 14 14 13 13 13 14 14 13 14 14 14 15
2 1 6 7 6 10 13 9 11 9 16 16 12 16 11 20 19 21 27 30 30 27 24 19 15 13 14 15 11 11 10 9 10 11 13 15 16 18 18 19 18 17 16 18 19 18 18 17 17
1 1 7 2 3 14 10 11 10 15 19 4 17 9 12 13 17 23 28 32 35 35 33 29 25 21 17 13 16 14 12 12 12 12 14 16 18 20 22 22 22 24 22 22 23 23 23 22 21
3 3 4 4 5 10 11 16 17 18 23 27 17 18 14 15 18 23 29 32 32 34 32 29 28 26 25 23 23 20 20 18 16 14 13 15 14 17 19 20 24 26 30 27 27 27 25 26 25
4 2 7 8 8 9 14 11 8 15 21 22 21 20 21 22 24 28 29 29 31 30 29 28 27 26 24 22 21 21 21 20 19 19 19 16 15 15 18 22 24 28 31 32 32 29 28 25 25
9 10 7 10 6 7 19 23 10 14 20 18 18 19 21 24 26 27 28 29 29 27 28 28 25 25 25 23 22 22 20 20 20 22 24 21 20 18 17 17 18 21 23 26 26 26 21 22 25
16 14 17 17 11 17 22 23 27 24 19 17 19 21 23 23 26 27 28 27 27 27 26 26 25 25 25 25 24 23 23 22 22 23 23 22 22 21 22 21 24 22 22 23 24 25 24 24 22
17 19 21 20 22 23 23 24 21 20 17 19 20 21 20 24 25 26 25 25 24 25 23 23 23 23 23 23 21 20 21 21 21 22 22 22 22 22 23 24 24 24 26 22 24 23 26 27 28
17 18 15 18 17 17 21 16 10 14 14 16 17 19 20 22 23 23 24 23 22 20 20 19 19 20 19 19 19 19 20 20 20 21 22 23 24 24 25 25 24 23 24 30 32 30 27 28 31
10 14 18 12 2 7 16 20 16 12 12 15 16 16 17 20 21 22 21 21 20 19 18 19 18 20 20 20 19 19 21 21 21 21 20 22 24 23 24 24 25 24 27 28 27 28 27 33 29
8 2 7 15 7 4 14 10 10 8 11 14 14 14 14 19 21 22 21 20 19 18 19 19 19 21 21 20 19 18 20 20 21 21 20 23 24 25 26 25 24 26 27 26 26 27 28 29 30
4 4 2 4 17 4 4 15 10 8 10 12 12 14 14 15 22 23 23 19 18 18 18 19 20 22 22 21 21 19 21 21 21 21 21 25 24 27 27 25 26 28 27 26 26 27 27 29 29
3 5 5 8 13 16 18 18 12 9 10 11 12 13 14 16 19 24 24 20 18 19 19 20 22 24 24 22 22 22 22 22 21 22 24 26 26 28 28 26 27 28 27 27 27 27 27 28 30
4 5 10 12 7 11 14 16 12 9 8 9 11 12 14 15 20 23 23 22 20 20 22 22 23 24 25 25 25 25 25 24 21 22 25 25 27 27 28 27 29 27 27 29 29 27 27 25 24
7 8 9 6 4 9 13 13 10 8 9 9 10 12 13 15 19 24 24 24 21 21 22 23 23 24 24 24 23 23 23 22 20 21 23 24 25 26 27 27 29 27 28 28 26 28 28 23 20
6 2 8 7 7 9 12 9 10 9 9 9 10 11 14 17 18 20 25 23 22 21 22 23 22 23 23 25 23 24 22 21 23 25 25 26 25 25 26 27 26 28 27 27 28 26 25 25 24
4 3 4 13 11 3 17 1 14 12 7 6 9 12 14 17 17 21 24 22 22 23 22 22 20 22 22 23 23 23 22 22 21 22 23 23 23 24 24 27 26 27 25 25 26 23 24 22 21
6 1 6 11 10 4 16 7 9 14 9 3 8 12 14 15 16 20 21 20 22 22 22 20 19 22 22 21 22 22 20 20 20 23 23 23 23 23 24 26 25 27 27 24 24 23 21 21 19
3 3 4 6 7 6 6 10 9 10 3 2 7 12 13 14 14 18 19 17 18 21 20 19 21 21 22 22 21 21 23 22 22 24 23 23 23 24 25 27 27 26 26 26 25 22 21 23 22
4 6 4 6 6 3 4 6 7 9 7 6 8 11 12 12 13 16 20 20 18 18 21 21 22 22 22 21 20 20 22 21 21 23 23 24 24 25 27 27 28 29 27 26 24 21 23 23 22
3 5 4 5 4 5 5 5 7 9 7 4 6 8 9 11 11 16 17 18 19 17 18 19 18 20 21 20 20 21 22 22 21 22 23 22 23 25 26 27 29 28 28 27 25 23 24 24 23
3 2 3 3 1 4 2 5 8 8 6 3 7 9 10 11 11 14 16 17 17 15 14 17 18 19 20 21 21 23 23 24 23 23 22 22 23 26 26 28 27 27 29 29 28 25 28 27 27
4 3 3 3 4 5 3 6 3 10 6 2 7 9 10 11 12 13 15 18 17 15 14 16 18 19 21 21 20 21 21 23 23 22 23 24 23 25 26 26 28 28 29 30 28 26 27 28 28
3 3 1 4 4 4 7 2 3 9 4 4 7 9 11 11 11 12 14 13 15 14 15 17 19 19 20 20 18 20 21 22 22 22 23 24 23 25 26 26 27 29 29 29 29 28 26 26 28
4 3 5 4 3 3 5 3 6 6 3 4 6 7 8 9 11 13 10 13 14 14 16 18 18 18 19 18 19 19 21 22 22 23 23 23 23 24 26 28 27 27 30 29 29 28 27 27 29
Wind_Direction
311 245 196 225 201 79 52 43 333 41 54 26 52 22 62 43 21 44 51 40 22 125 147 164 182 167 159 162 183 201 202 190 201 202 201 199 200 203 209 212 211 215 223 232 225 225 231 240 246
227 180 214 256 35 69 60 35 35 29 19 51 106 158 65 49 16 65 10 10 31 97 122 137 174 178 165 156 164 199 229 233 221 208 213 213 216 219 218 216 223 230 239 255 263 259 256 258 258
163 206 289 53 50 63 64 42 31 41 40 31 101 57 45 340 29 13 9 22 59 79 97 110 166 173 174 172 175 190 213 222 228 224 224 226 231 233 233 242 247 244 253 263 265 275 276 270 262
215 192 132 94 92 72 52 39 23 31 48 49 124 94 94 28 21 18 26 39 58 63 68 81 130 160 188 218 231 230 236 233 230 231 232 236 238 240 244 247 255 262 264 263 273 272 276 279 274
220 240 116 106 93 86 58 36 30 39 59 38 93 75 72 32 39 40 42 48 54 56 57 53 9 262 2 25 300 274 264 259 252 249 250 251 254 258 260 261 264 260 258 263 266 269 270 272 275
183 265 150 121 110 85 61 32 47 45 66 34 68 88 53 37 42 45 47 52 51 51 50 53 35 27 8 359 356 320 306 293 281 273 266 261 258 257 258 261 265 268 270 268 266 268 269 270 269
83 110 89 123 116 76 34 34 39 60 34 26 329 83 72 48 50 57 57 58 55 55 53 50 45 39 23 10 17 10 356 332 314 303 294 283 274 269 260 254 252 250 258 270 269 264 264 264 265
38 113 154 89 75 66 22 56 52 22 33 95 18 36 55 51 62 65 63 61 58 55 55 52 51 48 43 36 23 22 7 357 345 332 314 299 291 288 283 281 277 261 248 248 252 255 262 259 259
294 214 111 76 26 52 32 88 72 79 71 60 70 69 76 68 69 66 62 58 56 54 51 49 48 47 46 43 36 36 29 20 13 351 334 320 302 292 282 279 280 267 274 274 265 255 244 252 255
346 29 58 33 44 79 60 82 109 86 69 68 74 73 73 70 64 61 57 56 53 49 45 41 39 36 33 31 28 24 22 21 17 11 2 350 326 301 286 283 278 277 276 276 272 266 266 256 251
31 65 67 24 71 116 89 63 64 98 68 65 76 75 68 65 60 58 56 53 49 45 42 38 34 32 31 26 23 21 18 14 9 6 3 355 348 340 329 317 295 289 279 279 273 267 261 260 250
91 66 75 73 86 92 89 87 74 75 85 83 80 75 70 63 55 50 46 44 43 42 39 35 33 30 25 23 20 17 14 11 7 2 2 355 349 341 335 330 328 321 304 300 274 269 263 255 251
102 96 95 84 81 86 88 77 85 81 88 88 82 72 63 57 54 47 43 40 38 38 33 30 28 26 23 20 18 16 13 6 2 360 356 357 351 341 336 330 326 321 323 323 316 290 270 264 256
111 108 97 85 92 91 86 72 101 92 98 87 75 69 62 56 47 42 36 34 30 29 28 23 22 18 17 13 10 9 4 1 359 355 352 352 351 343 336 330 325 321 322 324 318 310 312 281 259
138 134 117 59 157 155 105 67 91 106 102 89 77 69 60 51 44 38 30 29 24 22 18 16 15 13 12 9 4 3 360 358 357 352 350 350 348 343 336 328 326 323 320 320 315 313 312 300 304
161 197 221 57 19 12 201 111 111 114 105 85 75 66 56 46 36 27 21 19 15 15 11 9 8 7 5 3 1 356 357 356 351 350 349 347 348 344 338 331 327 324 321 317 315 313 312 309 310
181 119 350 104 21 137 143 129 125 126 99 85 74 61 49 39 31 22 16 13 11 12 7 7 6 5 1 1 359 355 355 352 349 347 347 345 345 343 339 331 327 326 321 318 318 314 312 310 309
104 152 82 51 50 86 110 121 128 116 99 84 70 55 44 38 32 24 18 17 14 11 7 7 7 5 3 360 357 354 350 350 347 346 345 343 342 341 339 335 332 332 326 322 321 316 311 308 307
96 98 106 115 93 83 114 124 125 108 102 91 63 54 47 37 27 21 21 19 10 10 8 7 7 6 6 2 359 354 349 348 346 346 345 343 341 341 341 338 335 335 330 324 325 323 321 312 312
120 115 109 79 115 134 141 131 125 108 88 75 67 55 36 22 20 19 16 11 8 10 9 6 7 7 10 5 358 352 345 343 345 345 347 347 345 344 344 341 338 335 333 334 331 330 324 318 318
97 70 178 143 123 146 152 158 154 126 112 96 70 47 33 23 13 11 8 7 10 11 8 8 12 14 10 3 355 353 350 352 351 351 349 348 348 347 347 345 341 341 342 342 337 335 334 321 320
185 57 197 162 180 224 213 258 191 168 134 90 56 35 24 17 12 11 6 9 17 16 14 15 19 12 6 5 2 1 356 351 351 346 345 347 350 349 350 347 346 348 346 347 342 337 335 332 326
60 200 203 194 226 255 192 255 123 165 179 81 43 29 21 13 10 8 7 19 18 14 13 13 13 10 9 8 8 5 3 354 349 350 350 351 352 353 352 352 349 351 349 344 344 342 343 344 335
128 143 149 206 230 245 193 235 156 182 196 120 31 26 15 9 8 8 8 17 13 8 9 11 10 14 11 9 10 9 4 359 356 355 354 354 354 354 356 356 356 351 352 350 348 346 345 348 351
227 247 229 213 203 320 133 235 48 118 102 59 23 16 11 8 10 10 11 9 21 10 9 11 11 12 11 9 11 8 5 2 359 358 356 357 356 356 356 355 359 359 356 354 352 352 353 352 354
344 305 317 291 296 335 172 259 105 131 116 75 37 18 10 14 15 15 14 12 11 24 19 12 13 10 9 10 11 12 8 3 2 2 360 358 355 354 354 354 357 0 360 359 359 358 359 359 359
116 251 357 283 226 261 226 123 152 159 149 63 24 14 14 13 14 11 10 11 11 25 19 11 10 10 10 13 9 10 6 5 3 3 3 358 357 356 355 359 359 3 2 1 358 359 1 3 3
319 98 240 187 280 276 206 275 30 183 189 4 15 10 10 7 8 5 9 18 30 15 11 15 12 12 13 13 9 7 2 4 5 5 5 1 358 1 2 3 3 1 4 2 358 358 0 4 6
180 209 316 301 287 293 303 360 59 128 132 7 11 12 6 3 1 6 12 36 8 15 16 15 12 14 14 10 6 9 6 3 4 7 7 5 2 2 3 4 4 5 3 2 360 360 2 3 6
277 283 258 267 193 249 294 292 123 132 112 13 12 13 9 8 14 18 18 21 17 17 14 13 11 12 11 8 5 8 4 2 3 7 8 7 5 6 6 6 7 8 7 4 1 2 3 7 7